Location: Vancouver
(49.2500°N, 123.1330°W)
Time: 16:16:29
(UTC-08:00)

BREEZE-M DEB (TANK) - Visible Passes

Search period start: 10 December 2016 00:00
Search period end: 20 December 2016 00:00
Orbit: 274 x 13308 km, 49.6° (Epoch: 09 December)

Date Brightness Start Highest point End Pass type
(mag) Time Alt. Az. Time Alt. Az. Time Alt. Az.
10 Dec 8.4 02:51:00 41° SSW 03:52:48 81° SE 05:15:56 10° ENE visible
10 Dec 8.5 07:16:14 10° W 09:14:10 78° SW 09:43:52 10° SE visible
10 Dec 8.6 23:46:15 36° SE 00:20:45 44° E 01:45:32 10° NE visible
11 Dec 8.5 03:57:19 34° WSW 05:18:36 89° SSE 06:26:08 10° E visible
11 Dec 9.1 21:09:56 10° ENE 21:23:35 11° ENE 21:37:23 10° NE visible
12 Dec 8.4 00:52:23 48° SSE 01:27:15 60° ESE 02:59:22 10° ENE visible
12 Dec 8.6 05:03:25 24° WSW 06:45:41 90° N 07:35:07 10° ESE visible
12 Dec 8.9 21:47:21 18° E 22:19:38 22° ENE 23:17:48 10° NE visible
13 Dec 8.4 01:58:20 53° S 02:40:20 74° SE 04:11:41 10° ENE visible
13 Dec 8.6 06:09:19 13° W 08:06:25 84° SSW 08:42:50 10° SE visible
13 Dec 8.7 22:53:08 32° ESE 23:18:45 36° E 00:37:23 10° NE visible
14 Dec 8.4 03:04:05 49° SW 04:01:41 85° SSE 05:22:45 10° E visible
14 Dec 8.4 07:25:38 10° WNW 09:20:20 72° SW 09:49:15 10° SSE visible
14 Dec 8.6 23:58:45 46° SE 00:21:54 51° ESE 01:52:51 10° ENE visible
15 Dec 8.5 04:09:41 38° WSW 05:29:37 90° N 06:32:33 10° E visible
15 Dec 9.1 20:53:19 12° E 21:21:13 15° ENE 22:00:40 10° NE visible
16 Dec 8.4 01:04:12 58° SSE 01:30:36 66° ESE 03:06:18 10° ENE visible
16 Dec 8.7 05:15:07 26° W 06:55:16 89° SSW 07:41:02 10° ESE visible
16 Dec 8.9 21:58:38 26° E 22:18:08 28° E 23:26:53 10° NE visible
17 Dec 8.4 02:09:30 60° SSW 02:46:40 79° SE 04:18:20 10° ENE visible
17 Dec 8.6 06:20:24 15° W 08:13:27 80° SW 08:48:09 10° SE visible
17 Dec 8.7 23:03:49 40° ESE 23:18:30 42° E 00:44:43 10° NE visible
18 Dec 8.5 03:14:39 52° SW 04:11:19 88° SSE 05:29:02 10° E visible
18 Dec 8.4 07:34:26 10° WNW 09:25:08 66° WSW 09:53:54 10° SSE visible
19 Dec 8.5 00:08:51 55° SE 00:23:26 57° ESE 01:59:35 10° ENE visible
19 Dec 8.6 04:19:41 39° WSW 05:40:05 89° N 06:38:22 10° ESE visible
19 Dec 9.0 21:02:57 19° E 21:18:44 20° ENE 22:12:44 10° NE visible
